TimeCST,TemperatureF,Dew PointF,Humidity,Sea Level PressureIn,VisibilityMPH,Wind Direction,Wind SpeedMPH,Gust SpeedMPH,PrecipitationIn,Events,Conditions,WindDirDegrees,DateUTC
12:15 AM,26.6,15.8,64,29.94,10.0,West,16.1,21.9,N/A,,Clear,270,2013-11-05 06:15:00
12:35 AM,26.6,15.8,64,29.94,10.0,West,12.7,17.3,N/A,,Clear,260,2013-11-05 06:35:00
12:55 AM,26.6,15.8,64,29.95,10.0,West,12.7,20.7,N/A,,Partly Cloudy,260,2013-11-05 06:55:00
1:15 AM,26.6,15.8,64,29.96,10.0,West,10.4,16.1,N/A,,Scattered Clouds,270,2013-11-05 07:15:00
1:35 AM,24.8,15.8,69,29.96,10.0,West,8.1,-,N/A,,Partly Cloudy,280,2013-11-05 07:35:00
1:55 AM,26.6,15.8,64,29.97,10.0,West,13.8,19.6,N/A,,Clear,270,2013-11-05 07:55:00
2:15 AM,26.6,15.8,64,29.97,10.0,West,11.5,20.7,N/A,,Partly Cloudy,270,2013-11-05 08:15:00
2:35 AM,24.8,15.8,69,29.98,10.0,West,11.5,21.9,N/A,,Partly Cloudy,270,2013-11-05 08:35:00
2:55 AM,24.8,15.8,69,29.99,10.0,West,13.8,23.0,N/A,,Partly Cloudy,270,2013-11-05 08:55:00
3:15 AM,24.8,15.8,69,29.99,10.0,West,12.7,21.9,N/A,,Partly Cloudy,260,2013-11-05 09:15:00
3:35 AM,24.8,15.8,69,30.00,10.0,West,9.2,-,N/A,,Partly Cloudy,260,2013-11-05 09:35:00
3:55 AM,24.8,15.8,69,30.01,10.0,WSW,6.9,-,N/A,,Clear,250,2013-11-05 09:55:00
4:15 AM,24.8,15.8,69,30.02,10.0,West,9.2,-,N/A,,Partly Cloudy,280,2013-11-05 10:15:00
4:35 AM,24.8,15.8,69,30.03,10.0,West,6.9,-,N/A,,Mostly Cloudy,270,2013-11-05 10:35:00
4:55 AM,24.8,15.8,69,30.04,10.0,West,8.1,-,N/A,,Partly Cloudy,270,2013-11-05 10:55:00
5:15 AM,23.0,15.8,74,30.04,10.0,West,6.9,-,N/A,,Mostly Cloudy,270,2013-11-05 11:15:00
5:35 AM,23.0,15.8,74,30.05,10.0,West,9.2,-,N/A,,Scattered Clouds,260,2013-11-05 11:35:00
5:55 AM,23.0,15.8,74,30.05,10.0,West,8.1,-,N/A,,Scattered Clouds,260,2013-11-05 11:55:00
6:15 AM,23.0,15.8,74,30.06,10.0,West,6.9,-,N/A,,Mostly Cloudy,270,2013-11-05 12:15:00
6:35 AM,23.0,17.6,80,30.06,10.0,West,9.2,-,N/A,,Overcast,270,2013-11-05 12:35:00
6:55 AM,23.0,17.6,80,30.06,10.0,West,6.9,-,N/A,,Scattered Clouds,280,2013-11-05 12:55:00
7:15 AM,23.0,17.6,80,30.06,10.0,West,10.4,16.1,N/A,,Mostly Cloudy,270,2013-11-05 13:15:00
7:35 AM,23.0,17.6,80,30.07,10.0,West,9.2,17.3,N/A,,Overcast,280,2013-11-05 13:35:00
7:55 AM,23.0,15.8,74,30.08,10.0,West,6.9,16.1,N/A,,Mostly Cloudy,260,2013-11-05 13:55:00
8:15 AM,23.0,17.6,80,30.09,10.0,West,9.2,-,N/A,,Overcast,280,2013-11-05 14:15:00
8:35 AM,24.8,17.6,74,30.09,10.0,WNW,8.1,-,N/A,,Overcast,290,2013-11-05 14:35:00
8:55 AM,24.8,17.6,74,30.10,10.0,WNW,11.5,-,N/A,,Overcast,290,2013-11-05 14:55:00
9:15 AM,24.8,15.8,69,30.10,10.0,West,12.7,24.2,N/A,,Overcast,280,2013-11-05 15:15:00
9:35 AM,26.6,17.6,69,30.11,10.0,West,10.4,17.3,N/A,,Overcast,280,2013-11-05 15:35:00
9:55 AM,26.6,17.6,69,30.11,10.0,West,9.2,18.4,N/A,,Overcast,270,2013-11-05 15:55:00
10:15 AM,26.6,17.6,69,30.11,10.0,West,11.5,24.2,N/A,,Overcast,280,2013-11-05 16:15:00
10:35 AM,26.6,17.6,69,30.11,10.0,West,12.7,21.9,N/A,,Overcast,280,2013-11-05 16:35:00
10:55 AM,28.4,17.6,64,30.12,10.0,West,12.7,18.4,N/A,,Overcast,280,2013-11-05 16:55:00
11:15 AM,28.4,17.6,64,30.12,10.0,West,11.5,17.3,N/A,,Mostly Cloudy,280,2013-11-05 17:15:00
11:35 AM,30.2,19.4,64,30.14,10.0,West,10.4,-,N/A,,Overcast,280,2013-11-05 17:35:00
11:55 AM,28.4,17.6,64,30.14,10.0,West,12.7,18.4,N/A,,Overcast,270,2013-11-05 17:55:00
12:15 PM,30.2,19.4,64,30.14,10.0,West,10.4,18.4,N/A,,Overcast,270,2013-11-05 18:15:00
12:35 PM,30.2,19.4,64,30.14,10.0,West,10.4,17.3,N/A,,Overcast,270,2013-11-05 18:35:00
12:55 PM,32.0,19.4,60,30.13,10.0,West,9.2,17.3,N/A,,Overcast,270,2013-11-05 18:55:00
1:15 PM,32.0,19.4,60,30.12,10.0,West,13.8,18.4,N/A,,Overcast,270,2013-11-05 19:15:00
1:35 PM,32.0,19.4,60,30.12,10.0,West,11.5,16.1,N/A,,Mostly Cloudy,260,2013-11-05 19:35:00
1:55 PM,32.0,19.4,60,30.11,10.0,West,13.8,18.4,N/A,,Scattered Clouds,260,2013-11-05 19:55:00
2:15 PM,32.0,19.4,60,30.10,10.0,WNW,11.5,16.1,N/A,,Partly Cloudy,290,2013-11-05 20:15:00
2:35 PM,32.0,17.6,55,30.10,10.0,WNW,9.2,-,N/A,,Clear,300,2013-11-05 20:35:00
2:55 PM,32.0,17.6,55,30.10,10.0,West,11.5,16.1,N/A,,Clear,270,2013-11-05 20:55:00
3:15 PM,32.0,17.6,55,30.10,10.0,NW,8.1,-,N/A,,Clear,320,2013-11-05 21:15:00
3:35 PM,32.0,17.6,55,30.11,10.0,WNW,8.1,-,N/A,,Clear,300,2013-11-05 21:35:00
3:55 PM,32.0,17.6,55,30.11,10.0,NW,5.8,-,N/A,,Clear,320,2013-11-05 21:55:00
4:15 PM,32.0,17.6,55,30.11,10.0,NW,5.8,-,N/A,,Clear,310,2013-11-05 22:15:00
4:35 PM,32.0,17.6,55,30.12,10.0,West,4.6,-,N/A,,Clear,280,2013-11-05 22:35:00
4:55 PM,30.2,17.6,60,30.11,10.0,WSW,6.9,-,N/A,,Clear,250,2013-11-05 22:55:00
5:15 PM,28.4,17.6,64,30.12,10.0,WSW,5.8,-,N/A,,Clear,250,2013-11-05 23:15:00
5:35 PM,26.6,17.6,69,30.11,10.0,West,4.6,-,N/A,,Clear,260,2013-11-05 23:35:00
5:55 PM,26.6,17.6,69,30.12,10.0,WSW,4.6,-,N/A,,Clear,250,2013-11-05 23:55:00
6:15 PM,24.8,17.6,74,30.12,10.0,NNW,4.6,-,N/A,,Partly Cloudy,330,2013-11-06 00:15:00
6:35 PM,24.8,17.6,74,30.12,10.0,WNW,3.5,-,N/A,,Partly Cloudy,300,2013-11-06 00:35:00
6:55 PM,23.0,15.8,74,30.12,10.0,NW,4.6,-,N/A,,Clear,320,2013-11-06 00:55:00
7:15 PM,21.2,17.6,86,30.11,10.0,NW,6.9,-,N/A,,Clear,320,2013-11-06 01:15:00
7:35 PM,19.4,15.8,86,30.11,10.0,NW,6.9,-,N/A,,Partly Cloudy,320,2013-11-06 01:35:00
7:55 PM,17.6,15.8,93,30.11,10.0,NW,3.5,-,N/A,,Clear,310,2013-11-06 01:55:00
8:15 PM,17.6,15.8,93,30.11,10.0,Calm,Calm,-,N/A,,Clear,0,2013-11-06 02:15:00
8:35 PM,17.6,15.8,93,30.11,10.0,West,3.5,-,N/A,,Clear,280,2013-11-06 02:35:00
8:55 PM,15.8,14.0,93,30.12,10.0,Calm,Calm,-,N/A,,Clear,0,2013-11-06 02:55:00
9:15 PM,17.6,15.8,93,30.12,10.0,Calm,Calm,-,N/A,,Clear,0,2013-11-06 03:15:00
9:35 PM,15.8,15.8,100,30.12,10.0,WSW,3.5,-,N/A,,Clear,240,2013-11-06 03:35:00
9:55 PM,15.8,15.8,100,30.12,-9999.0,Calm,Calm,-,N/A,,Unknown,0,2013-11-06 03:55:00
10:15 PM,15.8,15.8,100,30.13,10.0,SW,3.5,-,N/A,,Clear,220,2013-11-06 04:15:00
10:35 PM,15.8,15.8,100,30.13,-9999.0,SW,3.5,-,N/A,,Unknown,220,2013-11-06 04:35:00
10:55 PM,15.8,15.8,100,30.13,-9999.0,SW,4.6,-,N/A,,Unknown,230,2013-11-06 04:55:00
11:15 PM,15.8,15.8,100,30.13,-9999.0,SW,3.5,-,N/A,,Unknown,230,2013-11-06 05:15:00
11:35 PM,14.0,14.0,100,30.13,-9999.0,SW,3.5,-,N/A,,Unknown,220,2013-11-06 05:35:00
11:55 PM,14.0,14.0,100,30.12,-9999.0,Calm,Calm,-,N/A,,Unknown,0,2013-11-06 05:55:00